KE5JJC Weather Reports


time (UTC)temp
C
wind
direction
speed
KPH
gust
KPH
rain 1hr
cm
rain 24hr
cm
rain mn
cm
humidity
%
barometer
mb
20260506180041 20 89 1.6 8.0 0.00 0.00 0.00 41 1009.8
20260506174542 19 107 0.0 6.4 0.00 0.00 0.00 41 1010.1
20260506173026 18 101 3.2 8.0 0.00 0.00 0.00 42 1010.2
20260506171526 17 115 1.6 6.4 0.00 0.00 0.00 44 1010.5
20260506170017 17 329 0.0 3.2 0.00 0.00 0.00 44 1010.6
20260506164514 16 105 0.0 8.0 0.00 0.00 0.00 45 1010.8
20260506163051 15 95 0.0 3.2 0.00 0.00 0.00 46 1010.9
20260506161550 13 211 0.0 3.2 0.00 0.00 0.00 48 1011.0
20260506160058 13 113 0.0 3.2 0.00 0.00 0.00 53 1011.2
20260506154531 12 90 0.0 3.2 0.00 0.00 0.00 54 1011.3
20260506153025 11 351 0.0 6.4 0.00 0.00 0.00 57 1011.3
20260506151518 11 84 0.0 1.6 0.00 0.00 0.00 60 1011.4
20260506150012 11 86 0.0 1.6 0.00 0.00 0.00 59 1011.4
20260506144511 10 96 0.0 0.0 0.00 0.00 0.00 60 1011.3
20260506143058 9 99 0.0 0.0 0.00 0.00 0.00 64 1011.3
20260506141552 8 97 0.0 0.0 0.00 0.00 0.00 65 1011.2
20260506140038 8 295 0.0 0.0 0.00 0.00 0.00 64 1011.2
20260506134530 8 295 0.0 0.0 0.00 0.00 0.00 66 1011.2
20260506133113 7 294 0.0 0.0 0.00 0.00 0.00 65 1011.1
20260506131536 -17 0.0 0.0 0.00 0.00 0.00 1010.9
20260506130113 -17 0.0 0.0 0.00 0.00 0.00 1010.8
20260506124525 -17 0.0 0.0 0.00 0.00 0.00 1010.7
20260506123021 -17 0.0 0.0 0.00 0.00 0.00 1010.6
20260506121534 -17 0.0 0.0 0.00 0.00 0.00 1010.6
20260506120034 -17 0.0 0.0 0.00 0.00 0.00 1010.6
20260506113055 8 294 0.0 0.0 0.00 0.00 0.00 55 1010.7
20260506111551 8 294 0.0 0.0 0.00 0.00 0.00 54 1010.7
20260506110041 9 294 0.0 0.0 0.00 0.00 0.00 53 1010.7
20260506104548 9 295 0.0 0.0 0.00 0.00 0.00 52 1010.7
20260506103035 10 295 0.0 0.0 0.00 0.00 0.00 51 1010.6
20260506101525 10 294 0.0 0.0 0.00 0.00 0.00 50 1010.5
20260506100023 10 294 0.0 0.0 0.00 0.00 0.00 49 1010.5
20260506094510 10 294 0.0 0.0 0.00 0.00 0.00 49 1010.5
20260506093057 11 294 0.0 0.0 0.00 0.00 0.00 47 1010.5
20260506093006 11 295 0.0 0.0 0.00 0.00 0.00 47 1010.5
20260506091555 11 295 0.0 0.0 0.00 0.00 0.00 46 1010.4
20260506090049 11 294 0.0 0.0 0.00 0.00 0.00 45 1010.4
20260506084545 12 294 0.0 0.0 0.00 0.00 0.00 43 1010.4
20260506083024 12 294 0.0 0.0 0.00 0.00 0.00 43 1010.4
20260506081519 12 294 0.0 0.0 0.00 0.00 0.00 43 1010.3
20260506073041 12 295 0.0 0.0 0.00 0.00 0.00 40 1010.2
20260506071546 13 294 0.0 0.0 0.00 0.00 0.00 38 1010.2
20260506061503 15 295 0.0 0.0 0.00 0.00 0.00 33 1009.5
20260506060104 15 294 0.0 0.0 0.00 0.00 0.00 31 1009.4
20260506044520 17 294 0.0 0.0 0.00 0.00 0.00 28 1009.2
20260506043010 17 294 0.0 1.6 0.00 0.00 0.00 28 1009.1
20260506041514 17 294 0.0 1.6 0.00 0.00 0.00 27 1009.0
20260506040006 18 294 0.0 1.6 0.00 0.00 0.00 27 1008.9
20260506034520 17 294 0.0 1.6 0.00 0.00 0.00 27 1008.7
20260506033005 18 294 0.0 1.6 0.00 0.00 0.00 28 1008.6
20260506031517 18 294 0.0 0.0 0.00 0.00 0.00 26 1008.4
20260506030007 19 294 0.0 1.6 0.00 0.00 0.00 26 1008.4
20260506024514 20 295 0.0 0.0 0.00 0.00 0.00 26 1008.3
20260506023021 20 299 0.0 0.0 0.00 0.00 0.00 26 1008.2
20260506021522 20 299 0.0 0.0 0.00 0.00 0.00 24 1008.2
20260506020006 21 300 0.0 1.6 0.00 0.00 0.00 24 1008.1
20260506014504 21 82 0.0 1.6 0.00 0.00 0.00 23 1008.1
20260506013038 22 317 0.0 3.2 0.00 0.00 0.00 23 1008.1
20260506011538 22 287 0.0 3.2 0.00 0.00 0.00 22 1007.9
20260506010032 23 285 0.0 3.2 0.00 0.00 0.00 23 1008.0
20260506004518 23 340 0.0 6.4 0.00 0.00 0.00 21 1008.1
20260506003012 24 299 0.0 1.6 0.00 0.00 0.00 19 1008.0
20260506001542 24 268 0.0 17.7 0.00 0.00 0.00 19 1008.1
20260506000032 25 281 0.0 8.0 0.00 0.00 0.00 21 1008.3
20260505234548 25 255 1.6 11.3 0.00 0.00 0.00 21 1008.3
20260505233030 25 287 3.2 12.9 0.00 0.00 0.00 19 1008.3
20260505231540 25 27 0.0 9.7 0.00 0.00 0.00 21 1008.6
20260505230022 25 276 1.6 12.9 0.00 0.00 0.00 19 1008.6
20260505224509 25 163 0.0 14.5 0.00 0.00 0.00 21 1008.7
20260505223053 25 221 3.2 14.5 0.00 0.00 0.00 22 1008.8
20260505221548 25 55 0.0 3.2 0.00 0.00 0.00 24 1008.7
20260505220038 25 251 1.6 14.5 0.00 0.00 0.00 22 1008.9
20260505214533 25 146 3.2 12.9 0.00 0.00 0.00 26 1009.2
20260505213017 25 294 1.6 8.0 0.00 0.00 0.00 25 1009.3
20260505211520 24 278 1.6 11.3 0.00 0.00 0.00 25 1009.5
20260505210006 23 209 1.6 14.5 0.00 0.00 0.00 27 1009.7
20260505204558 24 165 1.6 9.7 0.00 0.00 0.00 27 1009.7
20260505203048 23 339 0.0 9.7 0.00 0.00 0.00 27 1010.1
20260505201551 23 283 1.6 11.3 0.00 0.00 0.00 30 1010.0
20260505200030 22 28 0.0 8.0 0.00 0.00 0.00 29 1010.3
20260505194523 22 233 1.6 9.7 0.00 0.00 0.00 31 1010.5
20260505193010 22 183 0.0 6.4 0.00 0.00 0.00 28 1010.5
20260505191507 21 117 1.6 8.0 0.00 0.00 0.00 30 1010.7
20260505190045 21 47 0.0 8.0 0.00 0.00 0.00 34 1010.8
20260505184547 21 36 1.6 6.4 0.00 0.00 0.00 33 1010.8
20260505183035 20 80 1.6 9.7 0.00 0.00 0.00 34 1010.9
20260505181529 20 94 1.6 11.3 0.00 0.00 0.00 35 1010.9